| time (UTC) | temp C | wind direction | speed KPH | gust KPH | rain 1hr cm | rain 24hr cm | rain mn cm | humidity % | barometer mb |
| 20260507155503 | 18 | 123 | 4.8 | 22.5 | 0.00 | 0.56 | 0.00 | 45 | 959.2 |
| 20260507155005 | 19 | 147 | 3.2 | 16.1 | 0.00 | 0.56 | 0.00 | 43 | 959.4 |
| 20260507154503 | 20 | 56 | 1.6 | 12.9 | 0.00 | 0.56 | 0.00 | 44 | 959.4 |
| 20260507154005 | 20 | 86 | 1.6 | 12.9 | 0.00 | 0.56 | 0.00 | 46 | 959.2 |
| 20260507153504 | 20 | 200 | 3.2 | 11.3 | 0.00 | 0.56 | 0.00 | 45 | 959.2 |
| 20260507153005 | 20 | 184 | 3.2 | 11.3 | 0.00 | 0.56 | 0.00 | 46 | 959.1 |
| 20260507152504 | 20 | 166 | 1.6 | 11.3 | 0.00 | 0.56 | 0.00 | 43 | 958.9 |
| 20260507152005 | 21 | 245 | 1.6 | 11.3 | 0.00 | 0.56 | 0.00 | 44 | 958.8 |
| 20260507151504 | 20 | 248 | 1.6 | 11.3 | 0.00 | 0.56 | 0.00 | 43 | 958.8 |
| 20260507151003 | 21 | 210 | 1.6 | 6.4 | 0.00 | 0.56 | 0.00 | 41 | 958.7 |
| 20260507150715 | 21 | 187 | 1.6 | 6.4 | 0.00 | 0.56 | 0.00 | 42 | 958.8 |
| 20260507145505 | 20 | 172 | 1.6 | 6.4 | 0.00 | 0.56 | 0.00 | 45 | 958.7 |
| 20260507145003 | 19 | 168 | 1.6 | 9.7 | 0.00 | 0.56 | 0.00 | 44 | 958.8 |
| 20260507144503 | 19 | 180 | 3.2 | 9.7 | 0.00 | 0.56 | 0.00 | 45 | 958.6 |
| 20260507144214 | 20 | 170 | 3.2 | 16.1 | 0.00 | 0.56 | 0.00 | 43 | 958.8 |
| 20260507143503 | 20 | 164 | 4.8 | 16.1 | 0.00 | 0.56 | 0.00 | 39 | 958.9 |
| 20260507143004 | 20 | 79 | 4.8 | 14.5 | 0.00 | 0.56 | 0.00 | 42 | 958.9 |
| 20260507142505 | 20 | 87 | 4.8 | 14.5 | 0.00 | 0.56 | 0.00 | 46 | 958.9 |
| 20260507142003 | 20 | 166 | 4.8 | 14.5 | 0.00 | 0.56 | 0.00 | 44 | 958.8 |
| 20260507141503 | 20 | 159 | 4.8 | 17.7 | 0.00 | 0.56 | 0.00 | 44 | 958.7 |
| 20260507141006 | 20 | 149 | 3.2 | 17.7 | 0.00 | 0.56 | 0.00 | 45 | 958.8 |
| 20260507140503 | 21 | 195 | 1.6 | 6.4 | 0.00 | 0.56 | 0.00 | 45 | 958.5 |
| 20260507135715 | 21 | 243 | 1.6 | 9.7 | 0.00 | 0.56 | 0.00 | 44 | 958.5 |
| 20260507135003 | 21 | 100 | 3.2 | 12.9 | 0.00 | 0.64 | 0.00 | 44 | 958.4 |
| 20260507134505 | 20 | 67 | 3.2 | 12.9 | 0.00 | 0.64 | 0.00 | 47 | 958.7 |
| 20260507134004 | 20 | 293 | 1.6 | 6.4 | 0.00 | 0.64 | 0.00 | 49 | 958.6 |
| 20260507133505 | 20 | 211 | 1.6 | 6.4 | 0.00 | 0.64 | 0.00 | 50 | 958.7 |
| 20260507133214 | 20 | 183 | 1.6 | 6.4 | 0.00 | 0.64 | 0.00 | 49 | 958.7 |
| 20260507132503 | 21 | 122 | 1.6 | 4.8 | 0.00 | 0.64 | 0.00 | 45 | 958.8 |
| 20260507132005 | 20 | 142 | 1.6 | 4.8 | 0.00 | 0.64 | 0.00 | 45 | 958.8 |
| 20260507131503 | 20 | 230 | 1.6 | 6.4 | 0.00 | 0.64 | 0.00 | 49 | 958.9 |
| 20260507131005 | 20 | 216 | 3.2 | 6.4 | 0.00 | 0.64 | 0.00 | 50 | 958.9 |
| 20260507130503 | 20 | 210 | 3.2 | 14.5 | 0.00 | 0.64 | 0.00 | 54 | 958.9 |
| 20260507125503 | 21 | 236 | 1.6 | 6.4 | 0.00 | 0.66 | 0.00 | 50 | 958.8 |
| 20260507125004 | 21 | 298 | 1.6 | 6.4 | 0.00 | 0.66 | 0.00 | 49 | 958.9 |
| 20260507124504 | 20 | 299 | 1.6 | 6.4 | 0.00 | 0.66 | 0.00 | 49 | 959.0 |
| 20260507124215 | 20 | 147 | 3.2 | 16.1 | 0.00 | 0.66 | 0.00 | 51 | 959.0 |
| 20260507123503 | 20 | 127 | 1.6 | 16.1 | 0.00 | 0.66 | 0.00 | 47 | 959.1 |
| 20260507123003 | 20 | 273 | 1.6 | 3.2 | 0.00 | 0.66 | 0.00 | 52 | 958.9 |
| 20260507122505 | 20 | 282 | 1.6 | 3.2 | 0.00 | 0.66 | 0.00 | 49 | 959.0 |
| 20260507122004 | 20 | 20 | 1.6 | 4.8 | 0.00 | 0.66 | 0.00 | 54 | 959.1 |
| 20260507121505 | 20 | 167 | 1.6 | 4.8 | 0.00 | 0.66 | 0.00 | 51 | 959.1 |
| 20260507121003 | 19 | 176 | 1.6 | 9.7 | 0.00 | 0.66 | 0.00 | 55 | 959.4 |
| 20260507120503 | 19 | 158 | 3.2 | 11.3 | 0.00 | 0.66 | 0.00 | 48 | 959.4 |
| 20260507115504 | 19 | 131 | 1.6 | 4.8 | 0.00 | 0.66 | 0.00 | 53 | 959.4 |
| 20260507115005 | 19 | 108 | 1.6 | 3.2 | 0.00 | 0.66 | 0.00 | 51 | 959.1 |
| 20260507114503 | 19 | 175 | 1.6 | 3.2 | 0.00 | 0.66 | 0.00 | 55 | 959.4 |
| 20260507114003 | 19 | 209 | 1.6 | 4.8 | 0.00 | 0.66 | 0.00 | 57 | 959.3 |
| 20260507113505 | 18 | 224 | 1.6 | 4.8 | 0.00 | 0.66 | 0.00 | 58 | 959.4 |
| 20260507113004 | 18 | 220 | 1.6 | 6.4 | 0.00 | 0.66 | 0.00 | 58 | 959.4 |
| 20260507112505 | 18 | 235 | 1.6 | 6.4 | 0.00 | 0.66 | 0.00 | 56 | 959.5 |
| 20260507112003 | 18 | 221 | 3.2 | 6.4 | 0.00 | 0.69 | 0.00 | 56 | 959.5 |
| 20260507111506 | 20 | 207 | 1.6 | 6.4 | 0.00 | 0.71 | 0.00 | 57 | 959.8 |
| 20260507111003 | 18 | 270 | 1.6 | 6.4 | 0.00 | 0.74 | 0.00 | 57 | 959.7 |
| 20260507110505 | 18 | 284 | 1.6 | 6.4 | 0.00 | 0.74 | 0.00 | 57 | 959.7 |
| 20260507105505 | 19 | 168 | 1.6 | 4.8 | 0.00 | 0.74 | 0.00 | 57 | 959.6 |
| 20260507105212 | 19 | 173 | 1.6 | 9.7 | 0.00 | 0.74 | 0.00 | 57 | 959.6 |
| 20260507104505 | 19 | 193 | 1.6 | 9.7 | 0.00 | 0.74 | 0.00 | 57 | 959.8 |
| 20260507104003 | 18 | 208 | 1.6 | 9.7 | 0.00 | 0.74 | 0.00 | 59 | 959.7 |
| 20260507103505 | 19 | 230 | 1.6 | 6.4 | 0.00 | 0.74 | 0.00 | 61 | 959.7 |
| 20260507103005 | 20 | 230 | 1.6 | 6.4 | 0.00 | 0.74 | 0.00 | 59 | 959.7 |
| 20260507102503 | 19 | 173 | 1.6 | 12.9 | 0.00 | 0.74 | 0.00 | 59 | 959.8 |
| 20260507102003 | 18 | 188 | 3.2 | 12.9 | 0.00 | 0.74 | 0.00 | 61 | 959.8 |
| 20260507101504 | 19 | 213 | 1.6 | 6.4 | 0.00 | 0.74 | 0.00 | 64 | 959.9 |
| 20260507101003 | 20 | 276 | 0.0 | 3.2 | 0.00 | 0.74 | 0.00 | 61 | 959.9 |
| 20260507100505 | 18 | 215 | 1.6 | 4.8 | 0.00 | 0.74 | 0.00 | 67 | 960.0 |
| 20260507095503 | 17 | 205 | 1.6 | 6.4 | 0.00 | 0.76 | 0.00 | 68 | 960.0 |
| 20260507095005 | 18 | 189 | 1.6 | 4.8 | 0.00 | 0.76 | 0.00 | 67 | 959.9 |
| 20260507094713 | 17 | 178 | 1.6 | 4.8 | 0.00 | 0.76 | 0.00 | 72 | 960.0 |
| 20260507094005 | 17 | 187 | 1.6 | 14.5 | 0.00 | 0.84 | 0.00 | 71 | 960.1 |
| 20260507093503 | 17 | 185 | 1.6 | 14.5 | 0.00 | 0.89 | 0.00 | 71 | 960.1 |
| 20260507093005 | 17 | 196 | 1.6 | 4.8 | 0.00 | 0.91 | 0.00 | 70 | 960.0 |
| 20260507092503 | 17 | 237 | 1.6 | 4.8 | 0.00 | 0.94 | 0.00 | 75 | 960.0 |
| 20260507092003 | 17 | 244 | 1.6 | 4.8 | 0.00 | 0.99 | 0.00 | 72 | 960.0 |
| 20260507091715 | 17 | 223 | 1.6 | 4.8 | 0.00 | 1.02 | 0.00 | 70 | 960.1 |
| 20260507091214 | 17 | 214 | 1.6 | 4.8 | 0.00 | 1.04 | 0.00 | 69 | 959.9 |
| 20260507090503 | 17 | 179 | 1.6 | 9.7 | 0.00 | 1.09 | 0.00 | 69 | 960.0 |
| 20260507085503 | 18 | 28 | 0.0 | 6.4 | 0.00 | 1.14 | 0.00 | 67 | 959.9 |
| 20260507085003 | 17 | 334 | 1.6 | 6.4 | 0.00 | 1.17 | 0.00 | 68 | 960.0 |
| 20260507084505 | 17 | 309 | 1.6 | 3.2 | 0.00 | 1.19 | 0.00 | 68 | 960.1 |
| 20260507084003 | 18 | 237 | 0.0 | 3.2 | 0.00 | 1.24 | 0.00 | 70 | 959.9 |
| 20260507083505 | 18 | 221 | 0.0 | 4.8 | 0.00 | 1.30 | 0.00 | 68 | 960.0 |
| 20260507083003 | 17 | 211 | 1.6 | 4.8 | 0.00 | 1.35 | 0.00 | 69 | 960.0 |
| 20260507082505 | 16 | 214 | 1.6 | 4.8 | 0.00 | 1.37 | 0.00 | 75 | 960.0 |
| 20260507082004 | 16 | 209 | 1.6 | 6.4 | 0.00 | 1.40 | 0.00 | 76 | 959.9 |
| 20260507081503 | 16 | 186 | 1.6 | 6.4 | 0.00 | 1.42 | 0.00 | 75 | 959.9 |
| 20260507081005 | 16 | 182 | 1.6 | 6.4 | 0.00 | 1.42 | 0.00 | 78 | 959.9 |
| 20260507080713 | 16 | 202 | 1.6 | 6.4 | 0.00 | 1.42 | 0.00 | 77 | 960.0 |
| 20260507075714 | 17 | 201 | 1.6 | 4.8 | 0.00 | 1.42 | 0.00 | 77 | 959.8 |
| 20260507075003 | 15 | 167 | 1.6 | 4.8 | 0.00 | 1.42 | 0.00 | 82 | 959.8 |
| 20260507074715 | 15 | 155 | 0.0 | 4.8 | 0.00 | 1.42 | 0.00 | 84 | 959.9 |
| 20260507074003 | 15 | 62 | 0.0 | 4.8 | 0.00 | 1.42 | 0.00 | 88 | 959.9 |
| 20260507073505 | 15 | 70 | 0.0 | 4.8 | 0.00 | 1.42 | 0.00 | 87 | 959.7 |
| 20260507073213 | 15 | 66 | 0.0 | 4.8 | 0.00 | 1.42 | 0.00 | 82 | 959.6 |
| 20260507072504 | 13 | 77 | 0.0 | 1.6 | 0.00 | 1.42 | 0.00 | 90 | 959.7 |
| 20260507072005 | 13 | 90 | 0.0 | 1.6 | 0.00 | 1.42 | 0.00 | 96 | 959.7 |
| 20260507071504 | 12 | 97 | 0.0 | 3.2 | 0.00 | 1.42 | 0.00 | 99 | 959.7 |
| 20260507071003 | 12 | 70 | 0.0 | 6.4 | 0.00 | 1.42 | 0.00 | 99 | 959.7 |
| 20260507070505 | 11 | 64 | 0.0 | 6.4 | 0.00 | 1.42 | 0.00 | 99 | 959.8 |
| 20260507065503 | 11 | 138 | 0.0 | 1.6 | 0.00 | 1.42 | 0.00 | 99 | 959.9 |
| 20260507065005 | 11 | 0 | 0.0 | 0.0 | 0.00 | 1.42 | 0.00 | 99 | 959.6 |
| 20260507064503 | 11 | 0 | 0.0 | 0.0 | 0.00 | 1.42 | 0.00 | 99 | 959.7 |
| 20260507064215 | 12 | 0 | 0.0 | 0.0 | 0.00 | 1.42 | 0.00 | 99 | 959.8 |
| 20260507063503 | 12 | 0 | 0.0 | 0.0 | 0.00 | 1.42 | 0.00 | 99 | 959.7 |
| 20260507063005 | 11 | 0 | 0.0 | 0.0 | 0.00 | 1.42 | 0.00 | 99 | 959.8 |
| 20260507062714 | 11 | 0 | 0.0 | 0.0 | 0.00 | 1.42 | 0.00 | 99 | 959.7 |
| 20260507062213 | 11 | 0 | 0.0 | 0.0 | 0.00 | 1.42 | 0.00 | 99 | 959.9 |
| 20260507061505 | 10 | 0 | 0.0 | 0.0 | 0.00 | 1.42 | 0.00 | 99 | 959.6 |
| 20260507061213 | 10 | 0 | 0.0 | 0.0 | 0.00 | 1.42 | 0.00 | 99 | 959.8 |
| 20260507060714 | 10 | 0 | 0.0 | 0.0 | 0.00 | 1.42 | 0.00 | 99 | 959.5 |
| 20260507055503 | 10 | 0 | 0.0 | 0.0 | 0.00 | 1.42 | 0.00 | 99 | 959.6 |
| 20260507055005 | 10 | 0 | 0.0 | 0.0 | 0.00 | 1.42 | 0.00 | 99 | 959.5 |
| 20260507054503 | 10 | 0 | 0.0 | 0.0 | 0.00 | 1.42 | 0.00 | 99 | 959.4 |
| 20260507054005 | 9 | 0 | 0.0 | 0.0 | 0.00 | 1.42 | 0.00 | 99 | 959.7 |
| 20260507053503 | 9 | 0 | 0.0 | 0.0 | 0.00 | 1.42 | 0.00 | 99 | 959.6 |
| 20260507053214 | 9 | 0 | 0.0 | 0.0 | 0.00 | 1.42 | 0.00 | 99 | 959.3 |
| 20260507052713 | 9 | 0 | 0.0 | 0.0 | 0.00 | 1.42 | 0.00 | 99 | 959.2 |
| 20260507052003 | 8 | 0 | 0.0 | 0.0 | 0.00 | 1.42 | 0.00 | 99 | 959.3 |
| 20260507051505 | 8 | 0 | 0.0 | 0.0 | 0.00 | 1.42 | 0.00 | 99 | 959.2 |
| 20260507050505 | 8 | 0 | 0.0 | 0.0 | 0.00 | 1.42 | 0.00 | 99 | 958.9 |
| 20260507045503 | 8 | 175 | 0.0 | 3.2 | 0.00 | 1.42 | 0.00 | 99 | 958.9 |
| 20260507045005 | 8 | 165 | 0.0 | 3.2 | 0.00 | 1.42 | 0.00 | 99 | 959.0 |
| 20260507044503 | 8 | 0 | 0.0 | 0.0 | 0.00 | 1.42 | 0.00 | 99 | 959.0 |
| 20260507044214 | 8 | 203 | 0.0 | 1.6 | 0.00 | 1.42 | 0.00 | 99 | 959.0 |
| 20260507043503 | 8 | 203 | 0.0 | 1.6 | 0.00 | 1.42 | 0.00 | 99 | 959.0 |
| 20260507043004 | 8 | 0 | 0.0 | 0.0 | 0.00 | 1.42 | 0.00 | 99 | 958.9 |
| 20260507042505 | 8 | 0 | 0.0 | 0.0 | 0.00 | 1.42 | 0.00 | 99 | 959.0 |
| 20260507042214 | 8 | 0 | 0.0 | 0.0 | 0.00 | 1.42 | 0.00 | 99 | 959.1 |
| 20260507041503 | 8 | 203 | 0.0 | 3.2 | 0.00 | 1.42 | 0.00 | 99 | 958.7 |
| 20260507041005 | 8 | 202 | 0.0 | 3.2 | 0.00 | 1.42 | 0.00 | 99 | 958.8 |
| 20260507040713 | 8 | 202 | 0.0 | 3.2 | 0.00 | 1.42 | 0.00 | 99 | 958.8 |
| 20260507035713 | 8 | 208 | 0.0 | 1.6 | 0.00 | 1.42 | 0.00 | 99 | 958.7 |
| 20260507035005 | 8 | 208 | 0.0 | 1.6 | 0.00 | 1.42 | 0.00 | 99 | 958.7 |
| 20260507034503 | 8 | 208 | 0.0 | 1.6 | 0.00 | 1.42 | 0.00 | 99 | 958.7 |
| 20260507034005 | 8 | 202 | 0.0 | 3.2 | 0.00 | 1.42 | 0.00 | 99 | 958.7 |
| 20260507033503 | 8 | 201 | 0.0 | 3.2 | 0.00 | 1.42 | 0.00 | 99 | 958.5 |
| 20260507033214 | 8 | 201 | 0.0 | 3.2 | 0.00 | 1.42 | 0.00 | 99 | 958.7 |
| 20260507032505 | 8 | 0 | 0.0 | 0.0 | 0.00 | 1.42 | 0.00 | 99 | 958.9 |
| 20260507032003 | 8 | 0 | 0.0 | 0.0 | 0.00 | 1.42 | 0.00 | 99 | 958.8 |
| 20260507031503 | 8 | 168 | 0.0 | 3.2 | 0.00 | 1.42 | 0.00 | 99 | 958.6 |
| 20260507031216 | 8 | 168 | 0.0 | 3.2 | 0.00 | 1.42 | 0.00 | 99 | 958.7 |
| 20260507030712 | 8 | 157 | 0.0 | 3.2 | 0.00 | 1.42 | 0.00 | 99 | 958.7 |
| 20260507025503 | 8 | 0 | 0.0 | 0.0 | 0.00 | 1.42 | 0.00 | 99 | 958.3 |
| 20260507025005 | 8 | 0 | 0.0 | 0.0 | 0.00 | 1.42 | 0.00 | 99 | 958.5 |
| 20260507024503 | 8 | 0 | 0.0 | 0.0 | 0.00 | 1.42 | 0.00 | 99 | 958.4 |
| 20260507024003 | 8 | 0 | 0.0 | 0.0 | 0.00 | 1.42 | 0.00 | 99 | 958.6 |
| 20260507023714 | 8 | 0 | 0.0 | 0.0 | 0.00 | 1.42 | 0.00 | 99 | 958.6 |
| 20260507023003 | 9 | 105 | 0.0 | 1.6 | 0.00 | 1.42 | 0.00 | 99 | 958.4 |
| 20260507022503 | 9 | 104 | 0.0 | 1.6 | 0.00 | 1.42 | 0.00 | 99 | 958.6 |
| 20260507022005 | 9 | 103 | 0.0 | 1.6 | 0.00 | 1.42 | 0.00 | 99 | 958.5 |
| 20260507021503 | 9 | 0 | 0.0 | 0.0 | 0.00 | 1.42 | 0.00 | 99 | 958.6 |
| 20260507021005 | 9 | 0 | 0.0 | 0.0 | 0.00 | 1.42 | 0.00 | 99 | 958.6 |
| 20260507020503 | 9 | 0 | 0.0 | 0.0 | 0.00 | 1.42 | 0.00 | 99 | 958.3 |
| 20260507015503 | 9 | 75 | 0.0 | 1.6 | 0.00 | 1.42 | 0.00 | 99 | 958.5 |
| 20260507015005 | 10 | 84 | 0.0 | 1.6 | 0.00 | 1.42 | 0.00 | 99 | 958.3 |
| 20260507014503 | 10 | 114 | 0.0 | 1.6 | 0.00 | 1.42 | 0.00 | 99 | 958.5 |
| 20260507014003 | 10 | 114 | 0.0 | 1.6 | 0.00 | 1.42 | 0.00 | 99 | 958.5 |
| 20260507013505 | 10 | 0 | 0.0 | 0.0 | 0.00 | 1.42 | 0.00 | 99 | 958.2 |
| 20260507013003 | 10 | 210 | 0.0 | 1.6 | 0.00 | 1.42 | 0.00 | 99 | 958.7 |
| 20260507012503 | 10 | 210 | 0.0 | 1.6 | 0.00 | 1.42 | 0.00 | 99 | 958.5 |
| 20260507012005 | 10 | 0 | 0.0 | 0.0 | 0.00 | 1.42 | 0.00 | 99 | 958.4 |
| 20260507011503 | 10 | 210 | 0.0 | 3.2 | 0.00 | 1.42 | 0.00 | 99 | 958.4 |
| 20260507011005 | 10 | 199 | 1.6 | 4.8 | 0.00 | 1.42 | 0.00 | 99 | 958.5 |
| 20260507010503 | 10 | 184 | 0.0 | 4.8 | 0.00 | 1.42 | 0.00 | 99 | 958.5 |
| 20260507005503 | 10 | 0 | 0.0 | 0.0 | 0.00 | 1.42 | 0.00 | 99 | 958.4 |
| 20260507005005 | 10 | 150 | 0.0 | 1.6 | 0.00 | 1.42 | 0.00 | 99 | 958.4 |
| 20260507004503 | 10 | 171 | 0.0 | 3.2 | 0.00 | 1.42 | 0.00 | 99 | 958.4 |
| 20260507004213 | 10 | 179 | 0.0 | 3.2 | 0.00 | 1.42 | 0.00 | 99 | 958.3 |
| 20260507003505 | 10 | 149 | 1.6 | 4.8 | 0.00 | 1.42 | 0.00 | 99 | 958.6 |
| 20260507003213 | 10 | 154 | 1.6 | 4.8 | 0.00 | 1.42 | 0.00 | 98 | 958.4 |
| 20260507002714 | 10 | 119 | 1.6 | 4.8 | 0.00 | 1.42 | 0.00 | 98 | 958.5 |
| 20260507002005 | 11 | 112 | 1.6 | 11.3 | 0.00 | 1.42 | 0.00 | 98 | 958.6 |
| 20260507001503 | 10 | 116 | 0.0 | 4.8 | 0.00 | 1.42 | 0.00 | 98 | 958.6 |
| 20260507001214 | 10 | 126 | 0.0 | 3.2 | 0.00 | 1.42 | 0.00 | 99 | 958.4 |
| 20260507000503 | 11 | 130 | 0.0 | 3.2 | 0.00 | 1.42 | 0.00 | 98 | 958.4 |
| 20260506235504 | 11 | 150 | 0.0 | 3.2 | 0.00 | 1.42 | 0.00 | 98 | 958.7 |
| 20260506235004 | 11 | 145 | 1.6 | 9.7 | 0.00 | 1.42 | 0.00 | 97 | 958.7 |
| 20260506234505 | 11 | 153 | 1.6 | 9.7 | 0.00 | 1.42 | 0.00 | 97 | 958.6 |
| 20260506234003 | 11 | 156 | 1.6 | 6.4 | 0.00 | 1.42 | 0.00 | 98 | 958.5 |
| 20260506233503 | 11 | 146 | 0.0 | 3.2 | 0.00 | 1.42 | 0.00 | 98 | 958.6 |
| 20260506233005 | 11 | 103 | 0.0 | 3.2 | 0.00 | 1.42 | 0.00 | 98 | 958.6 |
| 20260506232503 | 11 | 105 | 0.0 | 3.2 | 0.00 | 1.42 | 0.00 | 97 | 958.5 |
| 20260506232005 | 11 | 142 | 0.0 | 4.8 | 0.00 | 1.42 | 0.00 | 97 | 958.7 |
| 20260506231503 | 11 | 144 | 0.0 | 4.8 | 0.00 | 1.42 | 0.00 | 97 | 958.7 |
| 20260506231004 | 11 | 124 | 0.0 | 3.2 | 0.00 | 1.42 | 0.00 | 97 | 959.0 |
| 20260506230503 | 11 | 141 | 1.6 | 4.8 | 0.00 | 1.42 | 0.00 | 97 | 958.7 |
| 20260506225503 | 11 | 169 | 0.0 | 3.2 | 0.00 | 1.42 | 1.42 | 98 | 958.7 |
| 20260506225216 | 11 | 118 | 0.0 | 4.8 | 0.00 | 1.42 | 1.42 | 99 | 958.7 |
| 20260506224713 | 11 | 127 | 0.0 | 4.8 | 0.00 | 1.42 | 1.42 | 99 | 958.7 |
| 20260506224214 | 11 | 153 | 0.0 | 4.8 | 0.00 | 1.42 | 1.42 | 99 | 958.9 |
| 20260506223505 | 11 | 166 | 0.0 | 3.2 | 0.00 | 1.42 | 1.42 | 99 | 958.9 |
| 20260506223003 | 11 | 177 | 0.0 | 3.2 | 0.00 | 1.42 | 1.42 | 99 | 958.8 |
| 20260506222505 | 11 | 184 | 0.0 | 3.2 | 0.00 | 1.42 | 1.42 | 99 | 959.0 |
| 20260506222214 | 11 | 184 | 0.0 | 3.2 | 0.00 | 1.42 | 1.42 | 99 | 959.0 |
| 20260506221504 | 11 | 180 | 0.0 | 1.6 | 0.00 | 1.42 | 1.42 | 99 | 958.8 |
| 20260506221005 | 11 | 189 | 0.0 | 1.6 | 0.00 | 1.42 | 1.42 | 99 | 958.8 |
| 20260506220503 | 11 | 0 | 0.0 | 0.0 | 0.00 | 1.42 | 1.42 | 99 | 958.8 |
| 20260506215503 | 11 | 58 | 0.0 | 3.2 | 0.00 | 1.42 | 1.42 | 99 | 958.7 |
| 20260506215006 | 11 | 62 | 0.0 | 3.2 | 0.00 | 1.42 | 1.42 | 99 | 958.5 |
| 20260506214713 | 10 | 217 | 0.0 | 1.6 | 0.00 | 1.42 | 1.42 | 99 | 958.9 |
| 20260506214005 | 11 | 217 | 0.0 | 1.6 | 0.00 | 1.42 | 1.42 | 99 | 958.5 |
| 20260506213503 | 11 | 0 | 0.0 | 0.0 | 0.00 | 1.42 | 1.42 | 99 | 958.6 |
| 20260506213003 | 11 | 0 | 0.0 | 0.0 | 0.00 | 1.42 | 1.42 | 99 | 958.5 |
| 20260506212714 | 11 | 199 | 0.0 | 3.2 | 0.00 | 1.42 | 1.42 | 99 | 958.4 |
| 20260506212003 | 11 | 203 | 0.0 | 3.2 | 0.00 | 1.42 | 1.42 | 99 | 958.4 |
| 20260506211505 | 11 | 214 | 0.0 | 1.6 | 0.00 | 1.42 | 1.42 | 99 | 958.7 |
| 20260506211003 | 11 | 0 | 0.0 | 0.0 | 0.00 | 1.42 | 1.42 | 99 | 958.5 |
| 20260506210505 | 11 | 0 | 0.0 | 0.0 | 0.00 | 1.42 | 1.42 | 99 | 958.6 |
| 20260506205505 | 11 | 0 | 0.0 | 0.0 | 0.00 | 1.42 | 1.42 | 99 | 958.4 |
| 20260506205003 | 11 | 0 | 0.0 | 0.0 | 0.00 | 1.42 | 1.42 | 99 | 958.4 |
| 20260506204503 | 11 | 0 | 0.0 | 0.0 | 0.00 | 1.42 | 1.42 | 99 | 958.3 |
| 20260506204005 | 12 | 0 | 0.0 | 0.0 | 0.00 | 1.42 | 1.42 | 99 | 958.1 |
| 20260506203503 | 12 | 146 | 0.0 | 1.6 | 0.00 | 1.42 | 1.42 | 99 | 958.2 |
| 20260506203003 | 12 | 59 | 0.0 | 3.2 | 0.00 | 1.42 | 1.42 | 99 | 958.0 |
| 20260506202505 | 12 | 67 | 0.0 | 3.2 | 0.00 | 1.42 | 1.42 | 99 | 958.2 |
| 20260506202003 | 12 | 101 | 0.0 | 4.8 | 0.00 | 1.42 | 1.42 | 99 | 958.0 |
| 20260506201714 | 12 | 92 | 1.6 | 4.8 | 0.00 | 1.42 | 1.42 | 99 | 958.1 |
| 20260506201004 | 12 | 104 | 1.6 | 4.8 | 0.05 | 1.42 | 1.42 | 99 | 958.2 |
| 20260506200503 | 12 | 118 | 0.0 | 4.8 | 0.18 | 1.42 | 1.42 | 99 | 958.1 |
| 20260506195503 | 12 | 119 | 0.0 | 4.8 | 0.18 | 1.42 | 1.42 | 99 | 957.9 |
| 20260506195003 | 12 | 129 | 0.0 | 4.8 | 0.20 | 1.42 | 1.42 | 99 | 957.9 |
| 20260506194505 | 12 | 160 | 0.0 | 4.8 | 0.20 | 1.42 | 1.42 | 99 | 957.9 |
| 20260506194004 | 12 | 99 | 0.0 | 6.4 | 0.20 | 1.42 | 1.42 | 99 | 957.9 |
| 20260506193714 | 12 | 99 | 0.0 | 6.4 | 0.20 | 1.42 | 1.42 | 99 | 957.9 |
| 20260506193005 | 12 | 94 | 0.0 | 3.2 | 0.28 | 1.42 | 1.42 | 99 | 957.7 |
| 20260506192714 | 12 | 78 | 0.0 | 1.6 | 0.48 | 1.42 | 1.42 | 99 | 957.8 |
| 20260506192003 | 12 | 91 | 0.0 | 3.2 | 0.53 | 1.42 | 1.42 | 99 | 957.9 |
| 20260506191505 | 12 | 57 | 0.0 | 4.8 | 0.56 | 1.42 | 1.42 | 98 | 957.7 |
| 20260506191213 | 12 | 86 | 0.0 | 4.8 | 0.53 | 1.40 | 1.40 | 98 | 957.7 |
| 20260506190505 | 12 | 99 | 0.0 | 3.2 | 0.38 | 1.27 | 1.24 | 98 | 957.8 |
| 20260506185716 | 12 | 83 | 0.0 | 3.2 | 0.38 | 1.27 | 1.24 | 98 | 957.5 |
| 20260506185003 | 12 | 93 | 0.0 | 3.2 | 0.36 | 1.24 | 1.22 | 97 | 957.4 |
| 20260506184503 | 12 | 118 | 1.6 | 11.3 | 0.36 | 1.24 | 1.22 | 97 | 957.4 |
| 20260506184005 | 12 | 107 | 3.2 | 11.3 | 0.36 | 1.24 | 1.22 | 97 | 957.2 |
| 20260506183503 | 13 | 87 | 1.6 | 9.7 | 0.36 | 1.24 | 1.22 | 97 | 957.3 |
| 20260506183213 | 13 | 81 | 1.6 | 9.7 | 0.33 | 1.22 | 1.19 | 95 | 957.4 |
| 20260506182715 | 13 | 74 | 1.6 | 4.8 | 0.08 | 0.97 | 0.94 | 95 | 957.3 |
| 20260506182212 | 12 | 79 | 1.6 | 9.7 | 0.05 | 0.94 | 0.91 | 97 | 957.0 |
| 20260506181505 | 13 | 62 | 1.6 | 9.7 | 0.00 | 0.89 | 0.86 | 95 | 957.1 |
| 20260506181003 | 12 | 49 | 0.0 | 6.4 | 0.00 | 0.89 | 0.86 | 98 | 957.0 |
| 20260506180503 | 12 | 74 | 0.0 | 4.8 | 0.00 | 0.89 | 0.86 | 99 | 956.8 |
| 20260506175503 | 12 | 65 | 0.0 | 1.6 | 0.00 | 0.89 | 0.86 | 99 | 956.8 |
| 20260506175003 | 12 | 64 | 0.0 | 3.2 | 0.00 | 0.91 | 0.86 | 99 | 956.8 |
| 20260506174505 | 12 | 73 | 0.0 | 3.2 | 0.00 | 0.91 | 0.86 | 99 | 956.8 |
| 20260506174003 | 12 | 73 | 0.0 | 3.2 | 0.00 | 0.91 | 0.86 | 99 | 956.8 |
| 20260506173505 | 12 | 0 | 0.0 | 0.0 | 0.00 | 0.94 | 0.86 | 99 | 956.9 |
| 20260506173003 | 12 | 0 | 0.0 | 0.0 | 0.00 | 0.94 | 0.86 | 99 | 956.9 |
| 20260506172505 | 12 | 78 | 0.0 | 1.6 | 0.00 | 0.94 | 0.86 | 98 | 957.0 |
| 20260506172003 | 12 | 167 | 0.0 | 3.2 | 0.00 | 0.97 | 0.86 | 98 | 957.0 |
| 20260506171504 | 13 | 177 | 0.0 | 3.2 | 0.00 | 0.97 | 0.86 | 98 | 957.3 |
| 20260506171003 | 13 | 111 | 0.0 | 9.7 | 0.00 | 0.97 | 0.86 | 98 | 957.1 |
| 20260506170503 | 13 | 98 | 1.6 | 9.7 | 0.00 | 0.97 | 0.86 | 98 | 957.0 |
| 20260506165713 | 13 | 91 | 0.0 | 1.6 | 0.00 | 0.99 | 0.86 | 98 | 957.2 |
| 20260506165214 | 13 | 0 | 0.0 | 0.0 | 0.00 | 0.99 | 0.86 | 98 | 957.2 |
| 20260506164505 | 13 | 159 | 0.0 | 1.6 | 0.00 | 0.99 | 0.86 | 98 | 957.0 |
| 20260506164003 | 13 | 127 | 0.0 | 1.6 | 0.00 | 0.99 | 0.86 | 98 | 957.0 |
| 20260506163503 | 13 | 97 | 0.0 | 1.6 | 0.00 | 0.99 | 0.86 | 98 | 957.2 |
| 20260506163216 | 13 | 95 | 0.0 | 1.6 | 0.00 | 0.99 | 0.86 | 98 | 957.3 |
| 20260506162503 | 13 | 0 | 0.0 | 0.0 | 0.00 | 1.02 | 0.86 | 98 | 957.1 |
| 20260506162005 | 13 | 105 | 0.0 | 3.2 | 0.00 | 1.02 | 0.86 | 98 | 957.3 |
| 20260506161713 | 13 | 92 | 0.0 | 3.2 | 0.00 | 1.02 | 0.86 | 98 | 957.1 |
| 20260506161003 | 13 | 86 | 0.0 | 3.2 | 0.00 | 1.02 | 0.86 | 98 | 957.5 |
| 20260506160505 | 13 | 58 | 0.0 | 1.6 | 0.00 | 1.02 | 0.86 | 98 | 957.4 |